Location: Bo?a Wola
(50.4192°N, 19.7966°E)
Time: 15:41:48
(UTC+00:00)

Cosmos 1934 Rocket - Visible Passes

Search period start: 08 September 2024 00:00
Search period end: 18 September 2024 00:00
Orbit: 937 x 999 km, 83.0° (Epoch: 07 September)

Date Brightness Start Highest point End Pass type
(mag) Time Alt. Az. Time Alt. Az. Time Alt. Az.
08 Sep 5.9 01:29:01 10° N 01:34:24 29° ENE 01:39:47 10° SE visible
08 Sep 4.1 03:13:53 10° NNW 03:20:03 60° W 03:26:15 10° S visible
09 Sep 5.2 01:51:52 10° N 01:57:51 44° ENE 02:03:52 10° SE visible
10 Sep 6.7 00:31:09 10° NNE 00:34:42 15° NE 00:38:15 10° E visible
10 Sep 4.3 02:14:53 10° N 02:21:10 70° ENE 02:27:30 10° SSE visible
10 Sep 6.9 17:37:21 10° W 17:41:02 16° WNW 17:44:46 10° NNW visible
11 Sep 6.2 00:53:30 10° N 00:58:26 23° ENE 01:03:22 10° ESE visible
11 Sep 4.0 02:38:04 10° NNW 02:44:21 76° W 02:50:41 10° S visible
11 Sep 7.3 18:04:12 10° WNW 18:04:55 10° NW 18:05:38 10° NW visible
12 Sep 5.5 01:16:14 10° N 01:21:59 36° ENE 01:27:45 10° SE visible
12 Sep 4.3 03:01:24 10° NNW 03:07:23 48° W 03:13:25 10° SSW visible
12 Sep 6.8 23:56:10 10° NNE 23:58:36 12° NE 00:01:02 10° ENE visible
13 Sep 4.7 01:39:11 10° N 01:45:22 56° ENE 01:51:36 10° SSE visible
13 Sep 4.8 03:24:55 10° NNW 03:30:16 30° W 03:35:39 10° SW visible
14 Sep 6.4 00:18:04 10° NNE 00:22:25 19° ENE 00:26:48 10° ESE visible
14 Sep 4.0 02:02:16 10° N 02:08:37 87° E 02:15:00 10° S visible
14 Sep 6.9 17:26:00 10° W 17:28:46 13° NW 17:31:33 10° NNW visible
15 Sep 5.8 00:40:38 10° N 00:46:04 29° ENE 00:51:29 10° SE visible
15 Sep 4.0 02:25:31 10° NNW 02:31:43 61° W 02:37:57 10° S visible
16 Sep 5.0 01:03:30 10° N 01:09:32 44° ENE 01:15:35 10° SE visible
16 Sep 4.5 02:48:57 10° NNW 02:54:41 38° W 03:00:27 10° SSW visible
16 Sep 6.5 23:42:46 10° NNE 23:46:22 15° NE 23:49:58 10° E visible
17 Sep 4.2 01:26:31 10° N 01:32:51 70° ENE 01:39:12 10° SSE visible
17 Sep 5.1 03:12:38 10° NNW 03:17:30 24° W 03:22:24 10° SW visible
